Weather History for KAZO - February, 2013

Change the Weather History Date:

Friday, February 22, 2013

  Actual Average Record
Temperature  
Mean Temperature 28 °F 28 °F  
Max Temperature 34 °F 36 °F 61 °F (1984)
Min Temperature 22 °F 21 °F -8 °F (1963)
Degree Days  
Heating Degree Days 37 37  
Month to date heating degree days 892 853  
Since 1 July heating degree days 4343 4561  
Cooling Degree Days 0 0  
Month to date cooling degree days 0 0  
Year to date cooling degree days 0 0  
Moisture  
Dew Point 24 °F    
Average Humidity 85    
Maximum Humidity 92    
Minimum Humidity 77    
Precipitation  
Precipitation 0.19 in 0.06 in 1.26 in (1974)
Month to date precipitation 0.76 1.08  
Year to date precipitation 4.16 2.87  
Sea Level Pressure  
Sea Level Pressure 29.93 in    
Wind  
Wind Speed 9 mph (SE)    
Max Wind Speed 18 mph    
Max Gust Speed 26 mph    
Visibility 4 miles    
Events Fog , Rain , Snow    
T = Trace of Precipitation, MM = Missing Value Source: NWS Daily Summary

Daily Weather History Graph

Daily Weather History Graph

Search for Another Location

Airport or City:

Trip Planner

Search our weather history database for the weather conditions in past years. The results will help you decide how hot, cold, wet, or windy it might be!

Date:

Astronomy

Feb. 22, 2013 Rise Set
Actual Time 7:27 AM EST 6:23 PM EST
Civil Twilight 6:59 AM EST 6:52 PM EST
Nautical Twilight 6:27 AM EST 7:24 PM EST
Astronomical Twilight 5:54 AM EST 7:57 PM EST
Moon 3:32 PM EST (2/22) 5:15 AM EST (2/22)
Length of Visible Light 11h 52m
Length of Day
10h 55m
Waxing Gibbous, 90% of the Moon is Illuminated
Feb 22
Waxing Gibbous
Feb 25
Full
Mar 4
Last Quarter
Mar 11
New
Mar 19
First Quarter

Hourly Weather History & Observations

Time (EST) Temp. Windchill Dew Point Humidity Pressure Visibility Wind Dir Wind Speed Gust Speed Precip Events Conditions
12:35 AM 21.2 °F 10.1 °F 15.8 °F 80% 30.13 in 10.0 mi ESE 10.4 mph 24.2 mph N/A   Mostly Cloudy
12:53 AM 21.9 °F 9.2 °F 15.1 °F 75% 30.16 in 10.0 mi ESE 13.8 mph 21.9 mph N/A   Overcast
1:53 AM 23.0 °F 11.1 °F 17.1 °F 78% 30.15 in 10.0 mi ESE 12.7 mph 20.7 mph N/A   Overcast
2:24 AM 23.0 °F 11.1 °F 17.6 °F 80% 30.08 in 10.0 mi East 12.7 mph 23.0 mph N/A   Overcast
2:53 AM 23.0 °F 10.1 °F 17.6 °F 80% 30.05 in 5.0 mi East 15.0 mph 20.7 mph N/A Snow Light Snow
2:59 AM 23.0 °F 10.1 °F 17.6 °F 80% 30.04 in 1.8 mi East 15.0 mph 20.7 mph 0.00 in Snow Light Snow
3:28 AM 23.0 °F 12.4 °F 17.6 °F 80% 30.03 in 2.0 mi East 10.4 mph 21.9 mph 0.00 in Snow Light Snow
3:49 AM 23.0 °F 11.1 °F 19.4 °F 86% 30.01 in 1.8 mi East 12.7 mph - 0.00 in Snow Light Snow
3:53 AM 23.0 °F 13.1 °F 19.0 °F 85% 30.05 in 1.5 mi East 9.2 mph - 0.00 in Snow Light Snow
4:16 AM 23.0 °F 11.7 °F 19.4 °F 86% 29.99 in 0.8 mi East 11.5 mph - 0.01 in Snow Light Snow
4:39 AM 23.0 °F 12.4 °F 19.4 °F 86% 29.98 in 0.5 mi East 10.4 mph - 0.03 in Fog , Snow Snow
4:53 AM 23.0 °F 10.1 °F 19.9 °F 88% 30.00 in 0.5 mi East 15.0 mph 21.9 mph 0.04 in Fog , Snow Snow
5:03 AM 23.0 °F 11.1 °F 21.2 °F 93% 29.96 in 0.2 mi East 12.7 mph 21.9 mph 0.01 in Fog , Snow Snow
5:33 AM 24.8 °F 14.0 °F 21.2 °F 86% 29.95 in 0.5 mi East 11.5 mph 18.4 mph 0.04 in Fog , Snow Snow
5:53 AM 24.1 °F 13.1 °F 21.0 °F 88% 29.97 in 0.2 mi East 11.5 mph 19.6 mph 0.07 in Fog , Snow Snow
6:08 AM 24.8 °F 12.9 °F 21.2 °F 86% 29.93 in 0.5 mi East 13.8 mph 19.6 mph 0.01 in Fog , Snow Snow
6:29 AM 24.8 °F 14.6 °F 21.2 °F 86% 29.93 in 0.8 mi ESE 10.4 mph - 0.02 in Snow Light Snow
6:53 AM 24.1 °F 13.1 °F 21.0 °F 88% 29.96 in 0.5 mi ESE 11.5 mph - 0.03 in Fog , Snow Snow
7:07 AM 24.8 °F 14.6 °F 21.2 °F 86% 29.92 in 0.8 mi ESE 10.4 mph - 0.01 in Snow Light Snow
7:18 AM 24.8 °F 15.3 °F 21.2 °F 86% 29.93 in 0.5 mi ESE 9.2 mph - 0.02 in Fog , Snow Snow
7:30 AM 24.8 °F 17.9 °F 21.2 °F 86% 29.93 in 0.2 mi ESE 5.8 mph - 0.04 in Fog , Snow Heavy Snow
7:53 AM 24.1 °F 16.0 °F 21.0 °F 88% 29.97 in 0.2 mi ESE 6.9 mph 16.1 mph 0.05 in Fog , Snow Light Snow
8:00 AM 24.8 °F 15.3 °F 21.2 °F 86% 29.92 in 1.0 mi ESE 9.2 mph - 0.00 in Snow Light Snow
8:26 AM 24.8 °F 16.1 °F 19.4 °F 80% 29.92 in 1.8 mi ESE 8.1 mph - 0.00 in Snow Light Snow
8:53 AM 24.1 °F 14.4 °F 21.0 °F 88% 29.96 in 1.8 mi East 9.2 mph - 0.00 in Snow Light Snow
9:53 AM 25.0 °F 14.8 °F 21.0 °F 85% 29.92 in 1.5 mi ESE 10.4 mph 18.4 mph 0.00 in   Overcast
10:17 AM 24.8 °F 16.1 °F 21.2 °F 86% 29.88 in 4.0 mi ESE 8.1 mph 16.1 mph N/A   Overcast
10:53 AM 26.1 °F 17.6 °F 21.9 °F 84% 29.91 in 10.0 mi ESE 8.1 mph - N/A   Overcast
11:49 AM 26.6 °F 19.1 °F 23.0 °F 86% 29.88 in 7.0 mi SE 6.9 mph - N/A   Overcast
11:53 AM 27.0 °F 20.5 °F 23.0 °F 85% 29.92 in 3.0 mi SSE 5.8 mph - N/A   Overcast
12:06 PM 26.6 °F 19.1 °F 24.8 °F 93% 29.88 in 2.5 mi SSE 6.9 mph - 0.00 in Snow Light Snow
12:29 PM 28.4 °F 20.4 °F 24.8 °F 86% 29.87 in 3.0 mi SE 8.1 mph - 0.00 in   Overcast
12:53 PM 28.0 °F 21.7 °F 25.0 °F 88% 29.91 in 4.0 mi SSE 5.8 mph - 0.00 in   Overcast
1:53 PM 28.9 °F 21.1 °F 26.1 °F 89% 29.89 in 5.0 mi South 8.1 mph - N/A   Overcast
2:53 PM 30.0 °F 26.5 °F 27.0 °F 88% 29.89 in 4.0 mi SSE 3.5 mph - N/A   Overcast
3:11 PM 30.2 °F 23.4 °F 28.4 °F 93% 29.84 in 2.5 mi SSE 6.9 mph - N/A   Overcast
3:53 PM 30.0 °F 24.1 °F 28.9 °F 96% 29.88 in 1.2 mi SSE 5.8 mph - N/A   Overcast
4:14 PM 30.2 °F 25.4 °F 28.4 °F 93% 29.84 in 1.0 mi SSE 4.6 mph - 0.00 in Rain Light Freezing Rain
4:53 PM 30.9 °F 27.5 °F 30.0 °F 96% 29.88 in 1.0 mi SSE 3.5 mph - 0.00 in Rain Light Freezing Rain
4:59 PM 30.2 °F 26.7 °F 30.2 °F 100% 29.84 in 0.8 mi South 3.5 mph - 0.00 in Rain Light Freezing Rain
5:53 PM 32.0 °F 25.6 °F 30.9 °F 96% 29.88 in 1.0 mi South 6.9 mph - 0.00 in Rain Light Freezing Rain
6:16 PM 33.8 °F 27.0 °F 32.0 °F 93% 29.84 in 1.5 mi SSW 8.1 mph - 0.00 in   Overcast
6:23 PM 33.8 °F 25.8 °F 32.0 °F 93% 29.84 in 1.8 mi SSW 10.4 mph - 0.00 in Rain Light Rain
6:29 PM 33.8 °F 26.4 °F 32.0 °F 93% 29.85 in 3.0 mi SSW 9.2 mph - 0.00 in   Overcast
6:53 PM 34.0 °F 26.6 °F 32.0 °F 92% 29.89 in 3.0 mi SSW 9.2 mph - 0.00 in   Overcast
7:39 PM 33.8 °F 26.4 °F 32.0 °F 93% 29.86 in 2.0 mi SSW 9.2 mph - 0.00 in Snow Light Snow
7:53 PM 34.0 °F 25.0 °F 30.9 °F 89% 29.90 in 6.0 mi SSW 12.7 mph 17.3 mph 0.00 in   Overcast
8:03 PM 33.8 °F 26.4 °F 30.2 °F 87% 29.86 in 7.0 mi SSW 9.2 mph - N/A   Overcast
8:21 PM 33.8 °F 26.4 °F 30.2 °F 87% 29.86 in 8.0 mi SW 9.2 mph - N/A   Overcast
8:53 PM 34.0 °F 26.6 °F 30.0 °F 85% 29.90 in 8.0 mi SW 9.2 mph - N/A   Overcast
9:53 PM 33.1 °F 25.5 °F 28.0 °F 82% 29.91 in 9.0 mi SW 9.2 mph - N/A   Overcast
10:53 PM 30.9 °F 20.7 °F 25.0 °F 79% 29.92 in 10.0 mi WSW 13.8 mph 19.6 mph N/A   Overcast
11:30 PM 30.2 °F 20.2 °F 23.0 °F 75% 29.89 in 10.0 mi WSW 12.7 mph - N/A   Overcast
11:53 PM 30.0 °F 21.1 °F 23.0 °F 75% 29.92 in 10.0 mi SW 10.4 mph - N/A   Overcast